Location: Newark
(63.1158°N, 8.1461°E)
Time: 06:09:07
(UTC+00:00)

Envisat - Pass Details

Date: 12 December 2019
Orbit: 764 x 766 km, 98.1° (Epoch: 19 January)

Event Time Altitude Azimuth Distance (km) Brightness Sun altitude
Rises 18:06:13 0° 195° (SSW) 3,230 6.4 -25.5°
Reaches altitude 10° 18:08:45 10° 205° (SSW) 2,307 5.8 -25.8°
Maximum altitude 18:13:16 31° 268° (W) 1,318 4.8 -26.3°
Drops below altitude 10° 18:17:49 10° 331° (NNW) 2,320 5.8 -26.9°
Sets 18:20:24 0° 342° (NNW) 3,251 6.5 -27.1°
